Location: Newark
(51.7378°N, 19.8125°E)
Time: 23:27:22
(UTC+00:00)

Envisat - Pass Details

Date: 11 December 2019
Orbit: 764 x 766 km, 98.1° (Epoch: 21 January)

Event Time Altitude Azimuth Distance (km) Brightness Sun altitude
Rises 05:39:38 0° 14° (NNE) 3,248 6.1 -8.3°
Reaches altitude 10° 05:41:57 10° 16° (NNE) 2,316 5.4 -8.0°
Maximum altitude 05:47:04 82° 104° (ESE) 780 3.2 -7.3°
Drops below altitude 10° 05:52:09 10° 193° (SSW) 2,298 5.7 -6.6°
Sets 05:54:27 0° 194° (SSW) 3,220 6.4 -6.3°
